GSAT-10

Last updated on Aug. 5, 2020, 5:33 a.m. UTC

1 38779U 12051B   20217.90264844 -.00000181  00000-0  00000-0 0  9993
2 38779   0.0751 273.0924 0000829 164.4746 284.2787  1.00270411 28630
UTC
Height (km)
Latitude
Longitude
Inclination
Orbital Period
UTC large
Height (km)
Speed (km/s)
/
Latitude / Longitude
Inclination (degrees)
Orbital Period (minutes)
Azimuth
Elevation
Range (km)
Doppler Factor
iOS Compass Heading
iOS Angle

Next 30 passes for location: Hong Kong

Rise time Rise Azimuth (degrees) Set time Set Azimuth (degrees) Duration Max altitude (degrees)

No matching passes for this satellites